{"data":{"norad_id":54055,"epoch":"2026-09-20T06:27:21.561984Z","epoch_age_seconds":106855,"freshness":"FRESH","line1":"1 54055U 22136E   26263.26899956  .00001085  00000+0  44315-4 0  9990","line2":"2 54055  53.1604 179.1097 0001181  94.5620 265.5517 15.33543281216376","mean_motion":15.33543281,"eccentricity":0.0001181,"inclination_deg":53.1604,"raan_deg":179.1097,"arg_perigee_deg":94.562,"mean_anomaly_deg":265.5517,"bstar":4.4315e-5,"rev_number":21637,"period_min":93.90018644019,"perigee_km":464.44257088938,"apogee_km":466.05897908184,"semimajor_km":6843.3877749856,"source":"CELESTRAK","updated_at":"2026-09-21T09:00:33.076523Z"}}